Weather Roundup
Issued by NWS Springfield, MO

Home | Current Version | Previous Version | Text Only | Print | Product List | Glossary On
Versions: 1 2 3 4 5 6 7 8 9 10 11 12 13 14 15 16 17 18 19 20 21 22 23 24 25 26 27 28 29 30 31 32 33 34 35 36 37 38 39 40 41 42 43 44 45 46 47 48 49 50
000
NZUS99 KSGF 030959
HRRSGF

HOURLY WEATHER
NATIONAL WEATHER SERVICE SPRINGFIELD MO
500 AM CDT SUN MAY 03 2015

......SGF CWA......

CITY           SKY/WX    TMP DP  RH WIND       PRES   REMARKS
SPRINGFIELD    MOCLDY    58  48  69 S10       29.97R
JOPLIN         PTCLDY    60  50  69 S9        29.95R
WEST PLAINS    MOCLDY    60  41  49 S6        30.03S
ROLLA          CLOUDY    59  45  59 S9        29.98R
OSAGE BEACH    CLOUDY    57  45  62 SE5       29.97R

......SURROUNDING SGF CWA......

CITY           SKY/WX    TMP DP  RH WIND       PRES   REMARKS
CHANUTE        PTCLDY    62  52  69 S12       29.90S
PARSONS        PTCLDY    61  53  75 S7        29.92S
COFFEYVILLE    PTCLDY    63  53  70 S12       29.92R
EMPORIA        CLOUDY    61  54  77 S10       29.86R
SILOAM SPRINGS CLEAR     61  46  59 S8        29.99S
HARRISON AR    CLEAR     51  48  89 SE6       30.01F
NEAR YELLVILLE CLEAR     55  45  67 S3        30.00S

......KANSAS AND MISSOURI......

CITY           SKY/WX    TMP DP  RH WIND       PRES   REMARKS
KANSAS CTY INT CLOUDY    64  53  67 S20       29.86S
DOWNTOWN KC    CLOUDY    66  52  60 S10       29.88R
COLUMBIA       MOCLDY    57  47  69 S9        29.95S
SEDALIA        CLOUDY    60  50  69 S9        29.94S
ST JOSEPH      CLOUDY    59  53  80 CALM      29.85R
ST LOUIS       CLOUDY    65  43  44 SE8       30.00R
SPIRIT OF STL  CLOUDY    58  47  66 CALM      29.98S
KIRKSVILLE     CLOUDY    57  51  80 S8        29.91S
WICHITA        CLOUDY    63  55  75 S15       29.84S
TOPEKA         LGT RAIN  64  57  78 S7        29.87R
OLATHE         CLOUDY    63  53  70 S8        29.90R

......TENNESSEE......

CITY           SKY/WX    TMP DP  RH WIND       PRES   REMARKS
MEMPHIS        CLEAR     55  46  71 CALM      30.06R
NASHVILLE      CLEAR     51  48  89 CALM      30.10R

......ARKANSAS.......

CITY           SKY/WX    TMP DP  RH WIND       PRES   REMARKS
FAYETTEVILLE   CLEAR     53  50  89 CALM      30.00S
FT SMITH       CLEAR     58  52  80 NE5       29.99R
LITTLE ROCK    CLEAR     55  48  77 CALM      30.04S

......OKLAHOMA.......

CITY           SKY/WX    TMP DP  RH WIND       PRES   REMARKS
TULSA          CLOUDY    65  53  65 S12       29.92R
PONCA CITY     PTCLDY    65  56  72 S8        29.88S
MCALESTER      PTCLDY    61  53  75 CALM      29.97S
OKLAHOMA CITY  MOCLDY    63  53  70 S14       29.92S

......IOWA............

CITY           SKY/WX    TMP DP  RH WIND       PRES   REMARKS
DES MOINES     LGT RAIN  62  54  74 S13       29.78F
QUAD CITIES    LGT RAIN  62  46  55 S9G22     29.91F

......ILLINOIS........

CITY           SKY/WX    TMP DP  RH WIND       PRES   REMARKS
QUINCY         PTCLDY    60  46  59 S7        29.94S
CHICAGO        CLOUDY    60  42  51 S8        29.96S



USA.gov is the U.S. government's official web portal to all federal, state and local government web resources and services.